Starlink 33596

operational
NORAD ID: 62758 Int'l Des: 2025-015 Owner: SPXS Country: US Constellation: starlink
LEOCIRCULAR

Starlink 33596について

説明を読み込み中...

リアルタイム位置

3D地球を読み込み中...

次回通過

高度履歴

Altitude vs Time

uPlot chart will show altitude changes over time

軌道要素

1 62758U 25015A 25305.97587778 .00034969 00000-0 11867-2 0 9990
2 62758 53.1591 195.9539 0001456 76.7485 283.3678 15.30213582 44856
Epoch: Nov 1, 2025 • Age: 34 hours

現在のステータス

高度 474.9 km
速度 7.63 km/s
衛星直下点 16.16°N, 178.61°E
打ち上げ日 Jan 21, 2025
運用期間 0.7 years
タイプ internet

技術仕様

分類 Payload
質量 575.00 kg
乾燥質量 530.00 kg
総質量 575.00 kg
長さ 0.30 m
直径 4.10 m
スパン 29.00 m
形状 Box + pan
製造者 SPXS
バスタイプ Starlink V2MO
フェーズステータス In Orbit
所有者/国 SPXS/US

大規模コンステレーション

Loading constellations...